P/2010 TO20 ( LINEAR-Grauer )

Japanese version
Home page
Updated on January 28, 2017

---------------------------------------------------------------------

* Profile

Discovery Date October 1, 2010 and October 19, 2011
Magnitude 19.4 mag, 19.1 mag
Discoverer Lincoln Laboratory Near-Earth Asteroid Research project, A. D. Grauer (Mount Lemmon)

* Pictures

* Orbital Elements

Epoch 2012 Sept. 30.0 TT = JDT 2456200.5
T 2009 Jan. 2.55230 TT                                  MPC
q   5.2866202            (2000.0)            P               Q
n   0.07247039     Peri.  264.18927     +0.61903257     +0.78476182
a   5.6976485      Node    44.10570     -0.70192396     +0.57041939
e   0.0721400      Incl.    2.53495     -0.35228033     +0.24242650
P  13.6
From 55 observations 2010 Oct. 1-2012 Nov. 17, mean residual 0".7.

* Magnitudes Graph

        m1 = -20 + 5 log d + 50 log r(t - 800)

---------------------------------------------------------------------

The orbital elements are published on M.P.E.C. 2012-W54.
The magnitudes graphs are made with Comet for Windows.

---------------------------------------------------------------------

Copyright(C) Seiichi Yoshida (comet@aerith.net). All rights reserved.